P/2007 T2 ( Kowalski )

Japanese version
Home page
Total 5,708 html files since Dec. 4, 1995
Updated on March 16, 2008

---------------------------------------------------------------------

* Profile

Discovery Date October 9, 2007
Magnitude 16.9 mag
Discoverer R. A. Kowalski (Catalina Sky Survey)

* Pictures

* Orbital Elements

Epoch 2007 Sept. 17.0 TT = JDT 2454360.5
T 2007 Sept. 19.02181 TT                                MPC
q   0.6958709            (2000.0)            P               Q
n   0.18146008     Peri.  358.54346     +0.99898607     -0.04339197
a   3.0899301      Node     4.00307     +0.04284831     +0.83461252
e   0.7747940      Incl.    9.89707     +0.01381513     +0.54912574
P   5.43

* Finding Charts

* Magnitudes Graph

        m1 = 18.5 + 5 log d + 5.0 log r

---------------------------------------------------------------------

The orbital elements are published on M.P.E.C. 2007-Y06.
The charts are made with StellaNavigator Ver.8 (AstroArts).
The magnitudes graphs are made with Comet for Windows.

---------------------------------------------------------------------

Copyright(C) 1995-2007 Seiichi Yoshida (comet@aerith.net). All rights reserved.